TimeMDT,TemperatureF,Dew PointF,Humidity,Sea Level PressureIn,VisibilityMPH,Wind Direction,Wind SpeedMPH,Gust SpeedMPH,PrecipitationIn,Events,Conditions,WindDirDegrees,DateUTC
12:51 AM,30.0,28.0,92,29.90,-9999.0,Calm,Calm,-,N/A,,Unknown,0,2013-05-06 06:51:00
1:51 AM,28.0,26.1,92,29.92,-9999.0,SSE,4.6,-,N/A,,Unknown,160,2013-05-06 07:51:00
2:51 AM,28.0,26.1,92,29.91,-9999.0,Calm,Calm,-,N/A,,Unknown,0,2013-05-06 08:51:00
3:51 AM,25.0,24.1,96,29.94,-9999.0,Calm,Calm,-,N/A,,Unknown,0,2013-05-06 09:51:00
4:51 AM,25.0,23.0,92,29.96,-9999.0,Calm,Calm,-,N/A,,Unknown,0,2013-05-06 10:51:00
5:51 AM,23.0,21.9,96,29.97,-9999.0,Calm,Calm,-,N/A,,Unknown,0,2013-05-06 11:51:00
6:51 AM,23.0,21.9,96,29.98,-9999.0,Calm,Calm,-,N/A,,Unknown,0,2013-05-06 12:51:00
7:51 AM,26.1,26.1,100,29.97,-9999.0,Calm,Calm,-,N/A,,Unknown,0,2013-05-06 13:51:00
8:51 AM,32.0,30.9,96,29.99,-9999.0,Calm,Calm,-,N/A,,Unknown,0,2013-05-06 14:51:00
9:51 AM,39.0,33.1,79,29.95,-9999.0,North,3.5,-,N/A,,Unknown,360,2013-05-06 15:51:00
10:51 AM,48.0,33.1,56,29.91,-9999.0,NNW,5.8,-,N/A,,Unknown,340,2013-05-06 16:51:00
11:51 AM,57.0,33.1,40,29.85,-9999.0,North,5.8,-,N/A,,Unknown,360,2013-05-06 17:51:00
12:51 PM,61.0,27.0,27,29.81,-9999.0,Variable,5.8,-,N/A,,Unknown,0,2013-05-06 18:51:00
1:51 PM,64.0,21.9,20,29.78,-9999.0,Variable,4.6,-,N/A,,Unknown,0,2013-05-06 19:51:00
2:51 PM,61.0,25.0,25,29.78,-9999.0,SSE,8.1,-,N/A,,Unknown,160,2013-05-06 20:51:00
3:51 PM,55.9,28.9,36,29.87,-9999.0,SE,13.8,26.5,N/A,,Unknown,140,2013-05-06 21:51:00
4:51 PM,48.9,36.0,61,29.95,-9999.0,East,9.2,16.1,0.02,,Unknown,100,2013-05-06 22:51:00
5:51 PM,51.1,37.0,59,29.90,-9999.0,SSE,3.5,-,N/A,,Unknown,160,2013-05-06 23:51:00
6:51 PM,52.0,36.0,54,29.88,-9999.0,Calm,Calm,-,N/A,,Unknown,0,2013-05-07 00:51:00
7:51 PM,52.0,36.0,54,29.87,-9999.0,Calm,Calm,-,N/A,,Unknown,0,2013-05-07 01:51:00
8:51 PM,42.1,35.1,76,29.90,-9999.0,South,4.6,-,N/A,,Unknown,180,2013-05-07 02:51:00
9:51 PM,37.9,33.1,83,29.89,-9999.0,SSE,3.5,-,N/A,,Unknown,150,2013-05-07 03:51:00
10:51 PM,36.0,32.0,86,-9999,-9999.0,Calm,Calm,-,N/A,,Unknown,0,2013-05-07 04:51:00
11:51 PM,34.0,30.9,89,-9999,-9999.0,SSE,5.8,-,N/A,,Unknown,160,2013-05-07 05:51:00